THOR ABLE DEB (YO), 115

Orbit data source: Space-Track

THOR ABLE DEB (YO), 115 is space debris in LEO originally from a launch on Fri, 01 Apr 1960 UTC launched from the Air Force Eastern Test Range (AFETR). Debris objects in space refer to the collection of defunct objects orbiting the Earth. Examples of debris include non-operational satellites, rocket bodies, and fragments generated from explosions, collisions, or faulty payload assembly.

Loading next visibility...
Identifier
115, 1960-002D
Orbit
LEO
Country
Flag of USUS
Related business
Manufacturer
RCA/East Windsor
Mission
Spacecraft
Bus & Motor
Unknown
Mass
~1 kg wet, ~1 kg dry
Launch date (UTC)
1960-04-01 (66 years ago)
Launch vehicle
Unknown
Launch site
Air Force Eastern Test Range (AFETR)
Object type
Payload
Rocket body
Debris
Shape & HBR
Unknown shape, 0.1 m
Radar Cross Section
Small (<0.1 m²)

Expand to show TLE details & history
Last TLE update: 18 hours ago

TLE from 18 hours ago
0 THOR ABLE DEB (YO)
1 00115U 60002D   25305.56053357  .00004270  00000-0  39238-3 0  9995
2 00115  48.1609 139.2935 0027334 311.1636  48.6924 14.96262473484024
Epoch: 2025-11-01T13:27Z
TLE epoch observation values (Epoch: 2025-11-01T13:27:10.100Z)
Latitude
-0.00002°
Longitude
-103.58746°
Altitude
566.282 km
Speed
7.586 km/s
True Right ascension
09h 17m 10s
True Declination
0° 00' 00"
Sunlit
Object was in daylight at epoch
Visualization orbit readout
Latitude
Unknown
Longitude
Unknown
Altitude
Unknown
Speed
Unknown
Apparent Right ascension
Unknown
Apparent Declination
Unknown
Sunlit
N/A
Visualization observer readout
Local Sidereal Time
03:25:40
Azimuth
Unknown
Elevation
Unknown
Doppler factor
Unknown
Orbital elements
Apogee altitude
598.539 km
Perigee altitude
560.503 km
Semi-major axis
6,957.658 km
Eccentricity
0.00273
Inclination
48.1609°
RAAN
139.2935°
Arg. of periapsis
311.1636°
True anomaly
48.92822°
Mean anomaly
48.6924°
Eccentric anomaly
48.81026°
Mean motion
3.7398 °/min
Orbital period
96.26 mins
BSTAR
0.00039238
Loading maneuver chart data...
Computing Atmospheric mass density...
Loading historical data...
Loading historical data...
Loading historical data...
Loading historical data...
Loading historical data...
Loading historical data...
Loading historical data...
Other satellites on launch #2 in the year 1960 (1960-04-01 UTC)

Documentation

Showing up to 5 results
|